Rickenbacker, OH

5:39 PM EDT on March 23, 2017 (GMT -0400)
Rickenbacker International

Weather History for KLCK - March, 2013

Change the Weather History Date:

Sunday, March 31, 2013

  Actual Average Record
Temperature  
Mean Temperature 50 °F -  
Max Temperature 57 °F 58 °F 84 °F (1998)
Min Temperature 42 °F 38 °F 26 °F (2003)
Degree Days  
Heating Degree Days 16    
Moisture  
Dew Point 38 °F    
Average Humidity 70    
Maximum Humidity 86    
Minimum Humidity 39    
Precipitation  
Precipitation 0.00 in - - ()
Sea Level Pressure  
Sea Level Pressure 29.81 in    
Wind  
Wind Speed 5 mph (SSW)    
Max Wind Speed 18 mph    
Max Gust Speed 28 mph    
Visibility 9 miles    
Events Rain    
Averages and records for this station are not official NWS values.
T = Trace of Precipitation, MM = Missing Value Source: NWS Daily Summary

Daily Weather History Graph

Daily Weather History Graph

Search for Another Location

Airport or City:

Trip Planner

Search our weather history database for the weather conditions in past years. The results will help you decide how hot, cold, wet, or windy it might be!

Date:

Astronomy

Mar. 31, 2013 Rise Set
Actual Time 7:17 AM EDT 7:55 PM EDT
Civil Twilight 6:49 AM EDT 8:22 PM EDT
Nautical Twilight 6:17 AM EDT 8:54 PM EDT
Astronomical Twilight 5:44 AM EDT 9:27 PM EDT
Moon No Moon Rise 10:04 AM EDT (3/31)
Length of Visible Light 13h 32m
Length of Day
12h 38m
Waning Gibbous, 78% of the Moon is Illuminated
Mar 31
Waning Gibbous
Apr 3
Last Quarter
Apr 10
New
Apr 18
First Quarter
Apr 25
Full

Hourly Weather History & Observations

Time (EDT) Temp. Windchill Dew Point Humidity Pressure Visibility Wind Dir Wind Speed Gust Speed Precip Events Conditions
12:15 AM 46.9 °F - 24.6 °F 42% 29.96 in 10.0 mi Calm Calm - N/A   Clear
12:35 AM 47.5 °F - 23.7 °F 39% 29.95 in 10.0 mi Calm Calm - N/A   Clear
12:55 AM 46.4 °F - 26.8 °F 46% 29.94 in 10.0 mi Calm Calm - N/A   Clear
1:15 AM 43.5 °F 40.1 °F 29.8 °F 59% 29.93 in 10.0 mi East 5.8 mph - N/A   Clear
1:35 AM 42.4 °F 38.8 °F 30.4 °F 62% 29.92 in 10.0 mi East 5.8 mph - N/A   Clear
1:55 AM 43.2 °F 39.7 °F 30.7 °F 62% 29.92 in 10.0 mi ESE 5.8 mph - N/A   Clear
2:15 AM 43.5 °F 40.1 °F 30.7 °F 61% 29.90 in 10.0 mi ESE 5.8 mph - N/A   Clear
2:35 AM 43.5 °F 40.1 °F 31.3 °F 62% 29.90 in 10.0 mi ESE 5.8 mph - N/A   Clear
2:55 AM 43.9 °F 41.3 °F 30.9 °F 60% 29.88 in 10.0 mi ESE 4.6 mph - N/A   Clear
3:15 AM 44.4 °F 42.0 °F 30.7 °F 59% 29.87 in 10.0 mi ESE 4.6 mph - N/A   Scattered Clouds
3:35 AM 44.6 °F 43.1 °F 31.3 °F 60% 29.86 in 10.0 mi ESE 3.5 mph - N/A   Scattered Clouds
3:55 AM 44.6 °F - 30.9 °F 59% 29.86 in 10.0 mi Calm Calm - N/A   Mostly Cloudy
4:15 AM 45.5 °F - 30.6 °F 56% 29.86 in 10.0 mi Calm Calm - N/A   Overcast
4:35 AM 45.3 °F - 30.6 °F 56% 29.85 in 10.0 mi Calm Calm - N/A   Overcast
4:55 AM 45.7 °F - 30.4 °F 55% 29.85 in 10.0 mi Calm Calm - N/A   Overcast
5:15 AM 45.7 °F - 30.9 °F 56% 29.84 in 10.0 mi Calm Calm - N/A Rain Light Rain
5:35 AM 45.3 °F - 32.7 °F 61% 29.83 in 10.0 mi Calm Calm - N/A Rain Light Rain
5:55 AM 44.8 °F - 33.6 °F 65% 29.83 in 10.0 mi Calm Calm - N/A   Drizzle
6:15 AM 43.9 °F - 36.0 °F 74% 29.83 in 10.0 mi Calm Calm - N/A   Drizzle
6:35 AM 43.7 °F - 36.3 °F 75% 29.83 in 10.0 mi Calm Calm - N/A Rain Light Rain
6:55 AM 43.9 °F - 36.0 °F 74% 29.83 in 10.0 mi Calm Calm - N/A Rain Light Rain
7:15 AM 43.5 °F - 36.9 °F 77% 29.83 in 7.0 mi Calm Calm - N/A Rain Light Rain
7:35 AM 43.0 °F 41.3 °F 37.4 °F 81% 29.83 in 7.0 mi SE 3.5 mph - N/A Rain Light Rain
7:55 AM 42.8 °F 38.6 °F 37.9 °F 83% 29.83 in 7.0 mi SSE 6.9 mph - N/A Rain Rain
8:15 AM 42.8 °F 39.3 °F 38.5 °F 85% 29.83 in 7.0 mi South 5.8 mph - N/A   Light Drizzle
8:35 AM 43.7 °F 41.1 °F 39.7 °F 86% 29.82 in 7.0 mi SSE 4.6 mph - N/A Rain Light Rain
8:55 AM 44.6 °F 43.1 °F 40.3 °F 85% 29.83 in 7.0 mi South 3.5 mph - N/A   Light Drizzle
9:15 AM 44.8 °F 43.3 °F 40.8 °F 86% 29.81 in 5.0 mi SE 3.5 mph - N/A Rain Light Rain
9:35 AM 45.1 °F - 41.0 °F 85% 29.81 in 7.0 mi Calm Calm - N/A Rain Light Rain
9:55 AM 46.0 °F - 41.2 °F 83% 29.80 in 10.0 mi Calm Calm - N/A   Drizzle
10:15 AM 46.8 °F - 41.7 °F 83% 29.80 in 7.0 mi Calm Calm - N/A   Light Drizzle
10:55 AM 47.1 °F - 42.1 °F 83% 29.80 in 7.0 mi SW 4.6 mph - N/A   Overcast
11:15 AM 47.1 °F - 42.6 °F 84% 29.81 in 7.0 mi WSW 4.6 mph - N/A   Overcast
11:35 AM 46.8 °F - 42.8 °F 86% 29.80 in 5.0 mi WSW 3.5 mph - N/A   Overcast
11:55 AM 46.8 °F - 42.8 °F 86% 29.80 in 3.0 mi SW 3.5 mph - N/A   Light Drizzle
12:15 PM 46.8 °F - 42.8 °F 86% 29.81 in 5.0 mi SSW 6.9 mph - N/A   Overcast
12:35 PM 47.5 °F - 43.3 °F 86% 29.80 in 5.0 mi SSW 8.1 mph - N/A   Overcast
12:55 PM 48.2 °F - 43.7 °F 84% 29.80 in 7.0 mi SSW 5.8 mph - N/A   Overcast
1:15 PM 48.6 °F - 44.1 °F 84% 29.79 in 7.0 mi SSW 6.9 mph - N/A   Overcast
1:35 PM 49.6 °F - 44.8 °F 83% 29.79 in 7.0 mi SW 6.9 mph - N/A   Overcast
1:55 PM 50.7 °F - 45.1 °F 81% 29.79 in 7.0 mi WSW 11.5 mph - N/A   Overcast
2:15 PM 51.4 °F - 45.1 °F 79% 29.78 in 10.0 mi SW 10.4 mph - N/A   Overcast
2:35 PM 51.8 °F - 45.0 °F 77% 29.77 in 10.0 mi SW 9.2 mph - N/A   Overcast
2:55 PM 51.8 °F - 45.1 °F 78% 29.77 in 10.0 mi SW 13.8 mph 21.9 mph N/A   Overcast
3:15 PM 52.3 °F - 44.8 °F 75% 29.77 in 10.0 mi WSW 16.1 mph 19.6 mph N/A   Overcast
3:35 PM 52.0 °F - 44.4 °F 75% 29.77 in 10.0 mi WSW 15.0 mph 18.4 mph N/A   Overcast
3:55 PM 52.3 °F - 44.8 °F 75% 29.76 in 10.0 mi SW 11.5 mph - N/A   Overcast
4:15 PM 52.7 °F - 44.8 °F 74% 29.75 in 10.0 mi WSW 15.0 mph 18.4 mph N/A   Overcast
4:35 PM 54.5 °F - 45.1 °F 71% 29.75 in 10.0 mi WSW 16.1 mph - N/A   Overcast
4:55 PM 55.6 °F - 44.8 °F 67% 29.75 in 10.0 mi WSW 17.3 mph 21.9 mph N/A   Overcast
5:15 PM 57.0 °F - 44.1 °F 62% 29.75 in 10.0 mi WSW 13.8 mph 19.6 mph N/A   Mostly Cloudy
5:35 PM 57.2 °F - 42.1 °F 57% 29.75 in 10.0 mi WSW 18.4 mph 27.6 mph N/A   Scattered Clouds
5:55 PM 56.8 °F - 40.8 °F 55% 29.75 in 10.0 mi West 17.3 mph 21.9 mph N/A   Mostly Cloudy
6:15 PM 56.8 °F - 40.1 °F 54% 29.75 in 10.0 mi WSW 17.3 mph 21.9 mph N/A   Mostly Cloudy
6:35 PM 56.8 °F - 39.7 °F 53% 29.76 in 10.0 mi WSW 15.0 mph 21.9 mph N/A   Mostly Cloudy
6:55 PM 56.1 °F - 38.7 °F 52% 29.76 in 10.0 mi WSW 15.0 mph - N/A   Scattered Clouds
7:15 PM 55.6 °F - 39.0 °F 54% 29.76 in 10.0 mi WSW 13.8 mph - N/A   Clear
7:35 PM 54.5 °F - 39.2 °F 56% 29.77 in 10.0 mi SW 11.5 mph - N/A   Clear
7:55 PM 52.7 °F - 39.2 °F 60% 29.77 in 10.0 mi SW 9.2 mph - N/A   Clear
8:15 PM 51.1 °F - 39.2 °F 64% 29.77 in 10.0 mi SW 8.1 mph - N/A   Clear
8:35 PM 49.1 °F - 39.0 °F 68% 29.77 in 10.0 mi SSW 9.2 mph - N/A   Clear
8:55 PM 49.1 °F - 39.2 °F 69% 29.77 in 10.0 mi SSW 8.1 mph - N/A   Clear
9:15 PM 48.2 °F - 38.8 °F 70% 29.77 in 10.0 mi SW 9.2 mph - N/A   Clear
9:35 PM 46.9 °F - 38.5 °F 72% 29.77 in 10.0 mi SSW 9.2 mph - N/A   Clear
9:55 PM 46.6 °F - 38.1 °F 72% 29.77 in 10.0 mi SSW 9.2 mph - N/A   Clear
10:15 PM 46.4 °F 42.4 °F 37.6 °F 71% 29.76 in 10.0 mi SSW 8.1 mph - N/A   Clear
10:35 PM 46.0 °F 41.9 °F 37.4 °F 72% 29.77 in 10.0 mi SSW 8.1 mph - N/A   Clear
10:55 PM 45.9 °F 42.3 °F 37.6 °F 73% 29.77 in 10.0 mi SSW 6.9 mph - N/A   Clear
11:15 PM 45.9 °F 41.7 °F 37.8 °F 73% 29.77 in 10.0 mi SSW 8.1 mph - N/A   Mostly Cloudy
11:35 PM 47.1 °F - 38.3 °F 71% 29.78 in 10.0 mi WSW 12.7 mph - N/A   Overcast
11:55 PM 48.7 °F - 38.7 °F 68% 29.77 in 10.0 mi WSW 6.9 mph - N/A   Overcast